Location: Civry
(47.2902°N, 4.6156°E)
Time: 08:44:11
(UTC+00:00)

Cosmos 2219 Rocket - Pass Details

Date: 09 April 2020
Orbit: 829 x 845 km, 71.0° (Epoch: 24 May)

Event Time Altitude Azimuth Distance (km) Brightness Sun altitude
Rises 22:26:18 0° 339° (NNW) 3,390 6.5 -32.1°
Reaches altitude 10° 22:29:56 10° 3° (N) 2,450 5.3 -32.4°
Maximum altitude 22:33:04 15° 37° (NE) 2,115 4.6 -32.6°
Enters shadow 22:34:52 13° 58° (ENE) 2,229 4.5 -32.7°
